Other Public Products
Issued by NWS Grand Forks, ND

Home | Current Version | Previous Version | Text Only | Print | Product List | Glossary On
Versions: 1 2 3 4 5 6 7 8 9 10 11 12 13 14 15 16 17 18 19 20 21 22 23 24 25 26 27 28 29 30 31 32 33 34 35 36 37 38 39 40 41 42 43 44 45 46 47 48 49 50
000
FPUS83 KFGF 222331
OPUFGF
PRAIRIE TO PINES WEATHER ROUNDUP
NATIONAL WEATHER SERVICE EASTERN NORTH DAKOTA/GRAND FORKS ND
600 PM CDT WED MAR 22 2017

 **SATELLITE DATA USED TO AUGMENT SKY COVER AT AUTOMATED STATIONS**
 *****  WEATHER ACROSS EASTERN NORTH DAKOTA  *****

CITY           SKY/WX    TMP DP  RH WIND       PRES   REMARKS
GRAND FORKS    FLURRIES  30  19  63 SE24G30   30.15F WCI  16
GRAND FORKS AF CLOUDY    29  22  74 SE17G23   30.14F WCI  17
GRAND CITY NWS NOT AVBL
BUXTON         NOT AVBL
DEVILS LAKE    PTSUNNY   30  23  74 SE25G32   30.03F WCI  16
FARGO          CLOUDY    34  19  54 SE24G37   30.16F WCI  21
WAHPETON ARPT  CLOUDY    32  23  69 SE20G29   30.17F WCI  20
$$

 *****  WEATHER ACROSS CENTRAL AND WESTERN NORTH DAKOTA  *****

CITY           SKY/WX    TMP DP  RH WIND       PRES   REMARKS
JAMESTOWN      CLOUDY    33  25  72 SE21G32   30.04F WCI  21
BISMARCK       FAIR      48  31  51 S26       29.89F
MINOT          FAIR      41  30  65 SE17      29.86F
MINOT AFB      FAIR      38  31  74 SE13      29.86F
GARRISON         N/A     41  32  70 SE14      29.84F
WILLISTON      FAIR      51  32  48 SE8       29.78F
DICKINSON      FAIR      54  35  48 S9        29.77R
HETTINGER      FAIR      57  37  47 S10       29.79F
$$

 *****  OTHER OBSERVATIONS NORTHEAST NORTH DAKOTA  *****

CITY           SKY/WX    TMP DP  RH WIND       PRES   REMARKS
WALHALLA       NOT AVBL
LANGDON        NOT AVBL
CAVALIER       NOT AVBL
GRAFTON        CLOUDY    30  21  69 SE24G32   30.17S WCI  16
CANDO          NOT AVBL
FORT TOTTEN      N/A     30  22  73 S20       29.95S WCI  17
ROLLA          CLOUDY    27  25  93 S26       29.95F WCI  11
RUGBY            N/A     32  28  86 SE21G28   29.93F WCI  20
 ***** THE ABOVE OBSERVATIONS ARE NON NWS ARE NOT QUALITY
        CONTROLLED AND MAY MIS-REPORT RAIN FOR SNOW...
$$

 *****  OTHER OBSERVATIONS SOUTHEAST NORTH DAKOTA *****

CITY           SKY/WX    TMP DP  RH WIND       PRES   REMARKS
COOPERSTOWN    CLOUDY    30  25  80 SE24G30   30.08S WCI  16
VALLEY CITY    FLURRIES  28  28 100 SE17G30   30.09F WCI  16
OAKES          NOT AVBL
GWINNER        CLOUDY    32  25  74 MISG      30.09F
SHEYENNE NWR     N/A     31  23  73 SE21      29.95S WCI  18
BUFFALO        NOT AVBL
WYNDMERE         N/A     32  27  80 SE23        N/A  WCI  19
 ***** THE ABOVE OBSERVATIONS ARE NON NWS ARE NOT QUALITY
       CONTROLLED AND MAY MIS-REPORT RAIN FOR SNOW...
$$

  *****  WEATHER ACROSS NORTHERN MINNESOTA  *****

CITY           SKY/WX    TMP DP  RH WIND       PRES   REMARKS
FLAG ISLAND    FAIR      28  19  69 S13       30.22F WCI  18
WARROAD        CLOUDY    34  12  40 SE12      30.22S
ROSEAU         CLOUDY    34  14  44 SE14      30.19F WCI  24
HALLOCK        LGT SNOW  30  23  74 S17       30.17R WCI  18
THF RVR FALLS    N/A    N/A N/A N/A MISG        N/A
HALSTAD          N/A     32  16  50 S23         N/A  WCI  19
FOSSTON        CLOUDY    32  16  51 S16       30.19F WCI  21
BAUDETTE       CLOUDY    34   8  33 S9        30.23F
WASKISH        CLOUDY    34   7  32 S8G16     30.25F
CROOKSTON      LGT SNOW  28  25  86 S22G29    30.17F WCI  15
$$
  *****  WEATHER ACROSS CENTRAL AND WEST MINNESOTA  *****

CITY           SKY/WX    TMP DP  RH WIND       PRES   REMARKS
BEMIDJI        PTSUNNY   33   9  36 SE15G21   30.22F WCI  23
PARK RAPIDS    CLOUDY    33  10  38 SE16      30.24F WCI  23
WADENA         CLOUDY    30  14  51 SE17G24   30.25F WCI  18
DETROIT LAKES  CLOUDY    32  16  51 S21G28    30.20F WCI  20
MOORHEAD       CLOUDY    34  19  55 SE26G32   30.17F WCI  21
FERGUS FALLS   CLOUDY    32  21  64 S24       30.24F WCI  19
ELBOW LAKE     CLOUDY    31  23  73 E20G26    30.21F WCI  19
MORRIS MN      CLOUDY    34  23  64 SE21G31   30.21F WCI  22
STAPLES        CLOUDY    32   9  37 SE14      30.27F WCI  22
WHEATON        CLOUDY    34  25  69 SE25G35   30.18F WCI  21
$$
  *****  WEATHER ELSEWHERE ACROSS MINNESOTA  *****

CITY           SKY/WX    TMP DP  RH WIND       PRES   REMARKS
DULUTH         FAIR      29  16  58 E10       30.35F WCI  20
INTRNTL FALLS  CLOUDY    34   8  33 S7        30.28F
ELY            FAIR      32   3  29 SE10      30.33F WCI  24
CLOQUET        FAIR      34  10  37 SE7       30.33F
BRAINERD       FAIR      35   7  31 S13       30.30F
HIBBING        FAIR      34   5  29 S9        30.31F
ALEXANDRIA     CLOUDY    33  19  56 S22G31    30.26F WCI  21
SAINT CLOUD    CLOUDY    36  14  40 S13       30.32F
MINNEAPOLIS    PTSUNNY   39  12  33 SE14      30.37F
$$

  *****  WEATHER ACROSS SOUTH DAKOTA  *****

CITY           SKY/WX    TMP DP  RH WIND       PRES   REMARKS
SIOUX FALLS    CLOUDY    39  25  57 SE18G26   30.18F
BROOKINGS      CLOUDY    34  24  67 SE26      30.13F WCI  21
WATERTOWN      CLOUDY    33  22  63 SE18G32   30.10F WCI  22
HURON          CLOUDY    38  24  57 SE20G36   30.04F
SISSETON         N/A     33  26  75 S28       30.13F WCI  20
ABERDEEN       CLOUDY    36  23  59 S18G28    30.07F
MITCHELL       CLOUDY    40  25  55 SE23G32   30.08F
PIERRE         FAIR      55  31  39 S29G39    29.86F
MOBRIDGE       FAIR      46  30  53 SE21      29.88F
RAPID CITY     FAIR      60  43  53 N15       29.77R
$$

  *****  SOME WEATHER IN NEARBY STATES *****

CITY           SKY/WX    TMP DP  RH WIND       PRES   REMARKS
GLASGOW MT     FAIR      58  37  45 VRB3      29.73F
GREAT FALLS MT FAIR      59  23  25 W20       29.74S
CHEYENNE WY    FAIR      64  29  26 S14       29.88F
SCOTTSBLUFF NE FAIR      70  34  26 SE14      29.81F
OMAHA NE       CLOUDY    50  23  34 SE21      30.21F
DES MOINES IA  CLOUDY    45  23  42 E13       30.32F
DAVENPORT IA   FAIR      42  18  37 SE10      30.44F
CHICAGO IL     PTSUNNY   34  16  47 NE9       30.51S
EAU CLAIRE WI  FAIR      38   5  25 SE12      30.40F
LA CROSSE WI   FAIR      41   8  25 SW8       30.43F
$$

  *****  SOME NATIONAL WEATHER *****

CITY           SKY/WX    TMP DP  RH WIND       PRES   REMARKS
LA GUARDIA NY  FAIR      33   1  25 NW18G32   30.29R WCI  22
RALEIGH NC     FAIR      55  15  20 NE13      30.26R
ATLANTA GA     CLOUDY    63  39  41 N12       30.17R
NEW ORLEANS LA FAIR      78  59  51 CALM      30.11S
OKLAHOMA CITY  CLOUDY    68  56  65 SE15      30.04F
ALBUQUERQUE NM PTSUNNY   81  15   8 S24G40    29.91F
SALT LAKE CITY LGT RAIN  56  46  69 N15       29.81R
LOS ANGELES CA FAIR      64  55  72 W22G30    29.98S
BOISE ID       FAIR      60  28  29 W7        29.84F
SEATTLE WA     LGT RAIN  51  44  77 SW22G30   29.89R
$$

*** WEATHER ACROSS MANITOBA...SASKATCHEWAN AND ONTARIO ***
                ***ONTARIO***

CITY           SKY/WX    TMP DP  RH WIND       PRES   REMARKS
GERALDTON      PTCLDY    25  -9  22 W10       30.39F WCI  15
THUNDER BAY    MOSUNNY   30  14  51 SE9       30.44F WCI  22
SIOUX LOOKOUT  PTSUNNY   30  -4  22 S5        30.30F
TORONTO        CLEAR     27   5  39 N10G20    30.49F WCI  17
BIG TROUT LK   HAZE      25  -2  30 SW3       30.26F VSB 1
PICKLE LAKE    MOSUNNY   27  -4  26 SW10      30.30F WCI  17
DRYDEN         PTSUNNY   30  -2  24 S9        30.27F WCI  22
KENORA         CLOUDY    30   3  31 S14       30.23F WCI  20
$$
                *** MANITOBA***

CITY           SKY/WX    TMP DP  RH WIND       PRES   REMARKS
BRANDON        CLOUDY    28  23  80 SE20G26   29.97F WCI  15
DAUPHIN        CLOUDY    27  19  74 SE18      29.97F WCI  13
ISLAND LAKE    MOSUNNY   30  -2  24 SE9       30.17F WCI  22
PILOT MOUND      N/A     27  23  86 S29         N/A  WCI  11
THE PAS        LGT SNOW  21  16  79 SE23G32   29.91F VSB 1   WCI   5
THOMPSON       PTSUNNY   28  -4  24 S6        30.05F WCI  22
WINNIPEG       LGT SNOW  28  18  64 SE22      30.15F WCI  15
LYNN LAKE      CLOUDY    27   1  33 SE12G17   29.89F WCI  16
CHURCHILL      MOSUNNY   12   9  85 E5        30.13F WCI   4
GILLAM         MOSUNNY   27  -4  26 S9        30.15F WCI  17
$$
                ***SASKATCHEWAN***

CITY           SKY/WX    TMP DP  RH WIND       PRES   REMARKS
ESTEVAN        PTSUNNY   37  30  75 SE14      29.82S
KINDERSLEY     MOSUNNY   46  36  66 W13       29.59R
LLOYDMINSTER   LGT SNOW  27  27 100 N7        29.58R VSB 3/4 WCI  19
PRINCE ALBERT  FRZ DRZL  25  23  93 E14       29.66F FOG     WCI  13
REGINA         MOSUNNY   37  30  75 SE22G28   29.73F
YORKTON        CLOUDY    27  23  86 S13G23    29.85R WC


USA.gov is the U.S. government's official web portal to all federal, state and local government web resources and services.